Regional Weather Roundup
Issued by NWS Cleveland, OH

Home | Current Version | Previous Version | Graphics & Text | Print | Product List | Glossary On
Versions: 1 2 3 4 5 6 7 8 9 10 11 12 13 14 15 16 17 18 19 20 21 22 23 24 25 26 27 28 29 30 31 32 33 34 35 36 37 38 39 40 41 42 43 44 45 46 47 48 49 50
000
ASUS41 KCLE 291810
RWRCLE
OHIO REGIONAL WEATHER ROUNDUP
NATIONAL WEATHER SERVICE WILMINGTON, OH
100 PM EST THU JAN 29 2015

NOTE: "FAIR" INDICATES FEW OR NO CLOUDS BELOW 12,000 FEET WITH NO
SIGNIFICANT WEATHER AND/OR OBSTRUCTIONS TO VISIBILITY.

OHZ001>008-015>018-024>027-034-035-043-044-291900-
   NORTHWEST OHIO

CITY           SKY/WX    TMP DP  RH WIND       PRES   REMARKS
DEFIANCE       CLOUDY   N/A N/A N/A SW6       29.74S
FINDLAY        CLOUDY    40  32  73 SW14      29.72F
TOLEDO EXPRESS LGT RAIN  36  32  85 SW9       29.72S
TOLEDO EXEC    LGT RAIN  38  31  76 SW10      29.72F
LIMA           CLOUDY    42  32  67 SW13      29.73F
$$

OHZ009>014-019>023-028>033-038-089-291900-
   NORTHEAST OHIO

CITY           SKY/WX    TMP DP  RH WIND       PRES   REMARKS
CLE-HOPKINS    FLURRIES  36  29  75 S14G22    29.78F
CLE-LAKEFRONT  MIX PCPN  37  29  72 S22G30    29.74F
CUY CO. ARPT   CLOUDY    37  30  75 S17G29    29.76F
LORAIN-ELYRIA  LGT SNOW  34  31  88 S12       29.75F FOG     WCI  25
ASHTABULA      LGT SNOW  30  28  92 S14       29.78F FOG     WCI  19
AKRON-CANTON   LGT RAIN  35  29  78 S12G22    29.79F WCI  27
WOOSTER        CLOUDY    34  30  85 S13       29.77F WCI  25
MANSFIELD      CLOUDY    38  31  76 S20G28    29.74F
YOUNGSTOWN     SNOW      31  29  92 S12       29.80F VSB 1/2 WCI  22
$$

OHZ042-051>053-060>062-070>072-077>081-291900-
  SOUTHWEST OHIO

CITY           SKY/WX    TMP DP  RH WIND       PRES   REMARKS
CINC-COVINGTON CLOUDY    48  37  66 W23G37    29.83F
CINC-LUNKEN    CLOUDY    49  37  63 SW13      29.84F
HAMILTON       CLOUDY    49  37  63 SW9G23    29.82F
DAYTON         CLOUDY    44  35  70 SW14      29.78F
WRIGHT-PAT AFB CLOUDY    44  35  73 SW14      29.78F
DAYTON GENERAL CLOUDY    46  36  68 SW12      29.78F
WILMINGTON     CLOUDY    45  35  68 SW16      29.79F
$$

OHZ036-037-039>041-045>050-054>059-063>069-073>076-082>088-291900-
  CENTRAL AND SOUTHEAST OHIO

CITY           SKY/WX    TMP DP  RH WIND       PRES   REMARKS
COLUMBUS       CLOUDY    39  31  72 S8        29.81F
OSU AIRPORT    CLOUDY    37  33  85 S7        29.79F
BOLTON FIELD   CLOUDY    37  34  87 SW12      29.81F
RICKENBACK AFB CLOUDY    39  33  77 S7        29.81F
NEWARK         CLOUDY    39  32  76 S8        29.81F
MARION         CLOUDY    37  31  78 S14       29.77F
LANCASTER      CLOUDY    41  33  73 S10       29.82F
ZANESVILLE     CLOUDY    37  29  72 S15G24    29.83F
NEW PHILLY     CLOUDY    36  31  82 S7        29.83F
$$



USA.gov is the U.S. government's official web portal to all federal, state and local government web resources and services.